Regional Weather Roundup
Issued by NWS

Home | Current Version | Previous Version | Text Only | Print | Product List | Glossary On
Versions: 1 2 3 4 5 6 7 8 9 10 11 12 13 14 15 16 17 18 19 20 21 22 23 24 25 26 27 28 29 30 31 32 33 34 35 36 37 38 39 40 41 42 43 44 45 46 47 48 49 50
930
ASUS43 KOAX 181410
RWRNE

WEATHER ROUNDUP FOR NEBRASKA
NATIONAL WEATHER SERVICE OMAHA NE
900 AM CDT FRI AUG 18 2017

NOTES: SATELLITE DATA IS BEING USED TO AUGMENT CLOUD COVER ABOVE
       12000 FEET.
       "FAIR" INDICATES FEW OR NO CLOUDS BELOW 12,000 FEET WITH NO
       SIGNIFICANT WEATHER AND/OR OBSTRUCTIONS TO VISIBILITY.


NEZ001>004-019>022-054>056-181500-
NEBRASKA PANHANDLE

CITY           SKY/WX    TMP DP  RH WIND       PRES   REMARKS
SCOTTSBLUFF    SUNNY     58  50  75 NW10      30.15R
ALLIANCE       SUNNY     58  53  84 W7        30.11R
CHADRON        SUNNY     61  52  72 SW6       30.07S
GORDON         FAIR      63  51  66 W7        30.07S
KIMBALL        SUNNY     60  49  67 NW8       30.19R
SIDNEY         SUNNY     62  49  62 NW12      30.15R
$$

NEZ057>060-069>072-079>082-181500-
SOUTHWEST NEBRASKA

CITY           SKY/WX    TMP DP  RH WIND       PRES   REMARKS
NORTH PLATTE   SUNNY     64  59  83 NW3       30.04R
IMPERIAL       SUNNY     62  57  83 N8        30.08R
LEXINGTON      SUNNY     66  60  81 CALM      30.02S
MCCOOK         SUNNY     67  59  75 W3        30.02S
OGALLALA       SUNNY     61  57  88 SW3       30.08R
$$

NEZ005>010-023>029-035>040-094-181500-
NORTH CENTRAL NEBRASKA

CITY           SKY/WX    TMP DP  RH WIND       PRES   REMARKS
VALENTINE      SUNNY     68  53  58 W8        30.00R
AINSWORTH      SUNNY     64  57  79 W9        30.01R
BROKEN BOW     SUNNY     67  58  72 CALM      30.01R
O`NEILL        SUNNY     65  61  88 W8        29.97R
ORD            SUNNY     64  59  83 CALM      29.98S
THEDFORD       CLOUDY    62  58  86 W5        30.04R
$$

NEZ041-046>049-061>064-073>077-083>087-181500-
SOUTH CENTRAL NEBRASKA

CITY           SKY/WX    TMP DP  RH WIND       PRES   REMARKS
GRAND ISLAND   SUNNY     69  61  75 W9        29.98S
AURORA         SUNNY     67  63  86 NW6       29.99R
HASTINGS       SUNNY     68  60  75 W7        30.01R
HEBRON         SUNNY     72  64  74 CALM      29.97R
HOLDREGE       SUNNY     68  58  70 SW6       30.01R
KEARNEY        SUNNY     69  58  67 W6        30.02R
YORK           SUNNY     66  63  88 N6        29.99R
$$

NEZ011>018-030>034-042>045-181500-
NORTHEAST NEBRASKA

CITY           SKY/WX    TMP DP  RH WIND       PRES   REMARKS
NORFOLK        SUNNY     64  60  87 S6        29.95F
ALBION         SUNNY     65  60  86 CALM      29.99S
BLAIR          RAIN      70  63  78 W5        29.95R
COLUMBUS       SUNNY     68  63  84 NW5       29.98S
FREMONT        SUNNY     69  64  83 W7        29.96S
TEKAMAH        SUNNY     70  61  73 CALM      29.94R
WAYNE          SUNNY     66  64  91 CALM      29.94R
$$

NEZ050>053-065>068-078-088>093-181500-
SOUTHEAST NEBRASKA

CITY           SKY/WX    TMP DP  RH WIND       PRES   REMARKS
LINCOLN        MOSUNNY   70  64  81 N9G16     29.96R
OMAHA EPPLEY   MOSUNNY   73  62  68 NW6       29.94R
BEATRICE       SUNNY     74  62  65 SW5       29.94R
FALLS CITY     CLOUDY    68  63  84 SE7       29.90F
NEBRASKA CITY  SUNNY     72  66  81 CALM      29.92R
PLATTSMOUTH    CLOUDY    69  64  81 N10       29.94R
$$

NEZ044-045-051>053-067-181500-
OMAHA AREA

CITY           SKY/WX    TMP DP  RH WIND       PRES   REMARKS
OMAHA EPPLEY   MOSUNNY   73  62  68 NW6       29.94R
BLAIR          RAIN      70  63  78 W5        29.95R
FREMONT        SUNNY     69  64  83 W7        29.96S
MILLARD        SUNNY     72  64  76 NW6       29.95R
OFFUTT AFB     SUNNY     73  62  68 NW5       29.94R
PLATTSMOUTH    CLOUDY    69  64  81 N10       29.94R
WAHOO          FAIR      69  64  84 NW7       29.96R
$$




USA.gov is the U.S. government's official web portal to all federal, state and local government web resources and services.